Location: Góry Miechowskie
(50.3599°N, 20.1803°E)
Time: 22:01:31
(UTC+00:00)

S-56A Canister/Altair - Pass Details

Date: 16 September 2024
Orbit: 636 x 2487 km, 38.9° (Epoch: 09 October)

Event Time Altitude Azimuth Distance (km) Brightness Sun altitude
Rises 23:03:41 0° 267° (W) 4,436 - -37.1°
Reaches altitude 10° 23:07:54 10° 247° (WSW) 3,805 - -37.0°
Maximum altitude 23:13:25 16° 214° (SSW) 3,730 - -36.8°
Drops below altitude 10° 23:19:57 10° 182° (S) 4,619 - -36.6°
Sets 23:26:06 0° 164° (SSE) 5,908 - -36.3°
